User: anonymous   Login
Location: Chuathbaluk
(61.5726°N, 159.2454°W)
Time: 11:10:25
(UTC+00:00)
Language:

Transit 2A - Orbit

View from above orbital plane
View from above orbital plane
View from above satellite
View from above satellite

Ground track
Ground track

The orbit data is extracted from the following two-line orbital elements,

1    45U 60007A   20334.63780609 -.00000052  00000-0  14142-4 0  9997
2    45  66.6943 305.5668 0257758 196.9839 162.2516 14.33696949146386
Epoch (UTC): 29 November 2020 15:18:26
Eccentricity: 0.0257758
inclination: 66.6943°
perigee height: 595 km
apogee height: 964 km
right ascension of ascending node: 305.5668°
argument of perigee: 196.9839°
revolutions per day: 14.33696949
mean anomaly at epoch: 162.2516°
orbit number at epoch: 14638

The dashed part of the orbit path shows where the satellite is in the earth's shadow,  

DLR